Carolina, PR

4:31 AM AST on February 26, 2017 (GMT -0400)
Luis Munoz Marin International

Weather History for TJSJ - May, 2012

Change the Weather History Date:

Monday, May 28, 2012

  Actual Average Record
Temperature  
Mean Temperature 82 °F 83 °F  
Max Temperature 87 °F 88 °F 93 °F (1990)
Min Temperature 76 °F 77 °F 67 °F (1929)
Degree Days  
Heating Degree Days 0 0  
Month to date heating degree days 0 0  
Since 1 July heating degree days 0 0  
Cooling Degree Days 17 18  
Month to date cooling degree days 460 470  
Year to date cooling degree days 2124 2111  
Growing Degree Days 31 (Base 50)    
Moisture  
Dew Point 73 °F    
Average Humidity 78    
Maximum Humidity 91    
Minimum Humidity 65    
Precipitation  
Precipitation T in 0.18 in 4.07 in (1956)
Month to date precipitation 5.14 5.37  
Year to date precipitation 25.41 18.15  
Sea Level Pressure  
Sea Level Pressure 29.99 in    
Wind  
Wind Speed 8 mph (East)    
Max Wind Speed 22 mph    
Max Gust Speed 26 mph    
Visibility 10 miles    
Events      
T = Trace of Precipitation, MM = Missing Value Source: NWS Daily Summary

Daily Weather History Graph

Daily Weather History Graph

Search for Another Location

Airport or City:

Trip Planner

Search our weather history database for the weather conditions in past years. The results will help you decide how hot, cold, wet, or windy it might be!

Date:

Astronomy

May. 28, 2012 Rise Set
Actual Time 5:47 AM AST 6:55 PM AST
Civil Twilight 5:23 AM AST 7:19 PM AST
Nautical Twilight 4:55 AM AST 7:47 PM AST
Astronomical Twilight 4:26 AM AST 8:16 PM AST
Moon 12:14 PM AST (5/28) 12:05 AM AST (5/28)
Length of Visible Light 13h 56m
Length of Day
13h 08m
Waxing Crescent, 48% of the Moon is Illuminated
May 28
Waxing Crescent
May 28
First Quarter
Jun 4
Full
Jun 11
Last Quarter
Jun 19
New

Hourly Weather History & Observations

Time (AST) Temp. Heat Index Dew Point Humidity Pressure Visibility Wind Dir Wind Speed Gust Speed Precip Events Conditions
12:56 AM 78.1 °F - 73.9 °F 87% 29.98 in 10.0 mi Calm Calm - N/A   Partly Cloudy
1:56 AM 78.1 °F - 73.0 °F 84% 29.96 in 10.0 mi SE 3.5 mph - N/A   Partly Cloudy
2:56 AM 78.1 °F - 73.0 °F 84% 29.97 in 10.0 mi Calm Calm - N/A   Partly Cloudy
3:56 AM 78.1 °F - 73.0 °F 84% 29.97 in 10.0 mi Calm Calm - N/A   Partly Cloudy
4:56 AM 78.1 °F - 73.0 °F 84% 29.98 in 10.0 mi Calm Calm - N/A   Partly Cloudy
5:56 AM 75.9 °F - 72.0 °F 87% 29.99 in 10.0 mi Calm Calm - N/A   Scattered Clouds
6:56 AM 79.0 °F - 73.0 °F 82% 30.01 in 10.0 mi Calm Calm - N/A   Scattered Clouds
7:56 AM 82.0 °F 87.9 °F 73.9 °F 76% 30.01 in 10.0 mi East 8.1 mph - N/A   Scattered Clouds
8:56 AM 82.9 °F 90.2 °F 75.0 °F 77% 30.02 in 10.0 mi East 9.2 mph - N/A   Scattered Clouds
9:56 AM 84.0 °F 90.2 °F 73.0 °F 69% 30.01 in 10.0 mi ESE 10.4 mph - N/A   Scattered Clouds
10:56 AM 82.0 °F 87.4 °F 73.0 °F 74% 30.02 in 10.0 mi East 12.7 mph - N/A   Scattered Clouds
11:56 AM 82.0 °F 88.6 °F 75.0 °F 79% 30.00 in 10.0 mi Variable 3.5 mph - 0.00 in   Mostly Cloudy
12:56 PM 84.0 °F 91.2 °F 73.9 °F 72% 29.98 in 10.0 mi ENE 13.8 mph - N/A   Scattered Clouds
1:56 PM 86.0 °F 93.8 °F 73.9 °F 67% 29.97 in 10.0 mi ENE 17.3 mph 24.2 mph N/A   Scattered Clouds
2:56 PM 84.9 °F 92.1 °F 73.9 °F 69% 29.96 in 10.0 mi ENE 18.4 mph - N/A   Scattered Clouds
3:56 PM 86.0 °F 93.0 °F 73.0 °F 65% 29.96 in 10.0 mi ENE 18.4 mph - N/A   Scattered Clouds
4:56 PM 84.0 °F 89.6 °F 72.0 °F 67% 29.96 in 10.0 mi ENE 15.0 mph - N/A   Scattered Clouds
5:56 PM 82.9 °F 88.0 °F 72.0 °F 69% 29.97 in 10.0 mi East 12.7 mph - N/A   Scattered Clouds
6:56 PM 81.0 °F 85.8 °F 73.0 °F 77% 29.98 in 10.0 mi East 10.4 mph - N/A   Scattered Clouds
7:56 PM 80.1 °F 84.2 °F 73.0 °F 79% 30.00 in 10.0 mi East 9.2 mph - N/A   Scattered Clouds
8:56 PM 80.1 °F 84.2 °F 73.0 °F 79% 30.01 in 10.0 mi ESE 8.1 mph - N/A   Partly Cloudy
9:56 PM 80.1 °F 83.8 °F 72.0 °F 76% 30.02 in 10.0 mi ESE 6.9 mph - N/A   Partly Cloudy
10:56 PM 80.1 °F 83.8 °F 72.0 °F 76% 30.03 in 10.0 mi ESE 4.6 mph - N/A   Partly Cloudy
11:56 PM 79.0 °F - 71.1 °F 77% 30.02 in 10.0 mi ESE 4.6 mph - N/A   Partly Cloudy